Time,TemperatureF,DewpointF,PressureIn,WindDirection,WindDirectionDegrees,WindSpeedMPH,WindSpeedGustMPH,Humidity,HourlyPrecipIn,Conditions,Clouds,dailyrainin,SoftwareType,DateUTC
2013-02-13 00:14:00,28.2,25.0,29.92,West,276,0.0,0.0,86,0.00,,,0.00,weatherlink.com 1.10,2013-02-13 05:14:00,
2013-02-13 00:30:00,28.2,25.0,29.92,WNW,298,0.0,0.0,86,0.00,,,0.00,weatherlink.com 1.10,2013-02-13 05:30:00,
2013-02-13 00:45:00,28.2,24.0,29.92,WNW,298,0.0,1.0,85,0.00,,,0.00,weatherlink.com 1.10,2013-02-13 05:45:00,
2013-02-13 01:00:00,28.2,25.0,29.92,WNW,293,0.0,0.0,86,0.00,,,0.00,weatherlink.com 1.10,2013-02-13 06:00:00,
2013-02-13 01:15:00,28.2,25.0,29.91,NW,304,0.0,2.0,86,0.00,,,0.00,weatherlink.com 1.10,2013-02-13 06:15:00,
2013-02-13 01:30:00,28.3,24.0,29.91,WNW,301,0.0,0.0,85,0.00,,,0.00,weatherlink.com 1.10,2013-02-13 06:30:00,
2013-02-13 01:45:00,28.3,25.0,29.91,WNW,290,0.0,0.0,86,0.00,,,0.00,weatherlink.com 1.10,2013-02-13 06:45:00,
2013-02-13 02:00:00,28.3,25.0,29.91,SW,236,0.0,1.0,86,0.00,,,0.00,weatherlink.com 1.10,2013-02-13 07:00:00,
2013-02-13 02:15:00,28.3,24.0,29.90,WSW,250,0.0,0.0,85,0.00,,,0.00,weatherlink.com 1.10,2013-02-13 07:15:00,
2013-02-13 02:30:00,28.1,24.0,29.90,NW,304,0.0,0.0,85,0.00,,,0.00,weatherlink.com 1.10,2013-02-13 07:30:00,
2013-02-13 02:45:00,27.8,24.0,29.91,NW,304,0.0,0.0,86,0.00,,,0.00,weatherlink.com 1.10,2013-02-13 07:45:00,
2013-02-13 03:00:00,27.9,24.0,29.90,WNW,288,0.0,0.0,86,0.00,,,0.00,weatherlink.com 1.10,2013-02-13 08:00:00,
2013-02-13 03:15:00,28.0,24.0,29.90,WNW,288,0.0,0.0,86,0.00,,,0.00,weatherlink.com 1.10,2013-02-13 08:15:00,
2013-02-13 03:30:00,28.0,24.0,29.89,WSW,237,0.0,0.0,86,0.00,,,0.00,weatherlink.com 1.10,2013-02-13 08:30:00,
2013-02-13 03:45:00,28.0,24.0,29.89,WSW,238,0.0,0.0,86,0.00,,,0.00,weatherlink.com 1.10,2013-02-13 08:45:00,
2013-02-13 04:00:00,28.0,25.0,29.88,WSW,238,0.0,0.0,87,0.00,,,0.00,weatherlink.com 1.10,2013-02-13 09:00:00,
2013-02-13 04:15:00,27.8,24.0,29.87,WSW,238,0.0,0.0,86,0.00,,,0.00,weatherlink.com 1.10,2013-02-13 09:15:00,
2013-02-13 04:30:00,26.9,24.0,29.87,WSW,238,0.0,0.0,87,0.00,,,0.00,weatherlink.com 1.10,2013-02-13 09:30:00,
2013-02-13 04:45:00,26.1,23.0,29.87,SSW,195,0.0,0.0,88,0.00,,,0.00,weatherlink.com 1.10,2013-02-13 09:45:00,
2013-02-13 05:00:00,25.5,23.0,29.86,SSW,194,0.0,0.0,89,0.00,,,0.00,weatherlink.com 1.10,2013-02-13 10:00:00,
2013-02-13 05:15:00,25.2,23.0,29.85,South,191,0.0,0.0,90,0.00,,,0.00,weatherlink.com 1.10,2013-02-13 10:15:00,
2013-02-13 05:30:00,24.4,22.0,29.85,SE,143,0.0,0.0,90,0.00,,,0.00,weatherlink.com 1.10,2013-02-13 10:30:00,
2013-02-13 05:45:00,24.5,22.0,29.84,SE,139,0.0,0.0,91,0.00,,,0.00,weatherlink.com 1.10,2013-02-13 10:45:00,
2013-02-13 06:00:00,24.0,22.0,29.84,SE,139,0.0,0.0,91,0.00,,,0.00,weatherlink.com 1.10,2013-02-13 11:00:00,
2013-02-13 06:15:00,23.9,22.0,29.84,SE,137,0.0,0.0,91,0.00,,,0.00,weatherlink.com 1.10,2013-02-13 11:15:00,
2013-02-13 06:30:00,24.1,22.0,29.84,SE,131,0.0,0.0,92,0.00,,,0.00,weatherlink.com 1.10,2013-02-13 11:30:00,
2013-02-13 06:45:00,24.6,23.0,29.84,NE,54,0.0,0.0,92,0.00,,,0.00,weatherlink.com 1.10,2013-02-13 11:45:00,
2013-02-13 07:00:00,25.0,23.0,29.83,SE,134,0.0,0.0,91,0.00,,,0.00,weatherlink.com 1.10,2013-02-13 12:00:00,
2013-02-13 07:15:00,25.3,23.0,29.83,SE,125,0.0,0.0,90,0.00,,,0.00,weatherlink.com 1.10,2013-02-13 12:15:00,
2013-02-13 07:30:00,25.6,23.0,29.82,SE,124,0.0,3.0,90,0.00,,,0.00,weatherlink.com 1.10,2013-02-13 12:30:00,
2013-02-13 07:45:00,25.8,23.0,29.81,SE,129,1.0,1.0,90,0.00,,,0.00,weatherlink.com 1.10,2013-02-13 12:45:00,
2013-02-13 08:00:00,26.1,23.0,29.81,SE,142,0.0,2.0,89,0.00,,,0.00,weatherlink.com 1.10,2013-02-13 13:00:00,
2013-02-13 08:15:00,26.3,24.0,29.81,SE,146,0.0,1.0,89,0.00,,,0.00,weatherlink.com 1.10,2013-02-13 13:15:00,
2013-02-13 08:30:00,26.6,24.0,29.81,SE,134,1.0,1.0,89,0.00,,,0.00,weatherlink.com 1.10,2013-02-13 13:30:00,
2013-02-13 08:45:00,26.9,24.0,29.81,SSE,155,1.0,2.0,88,0.00,,,0.00,weatherlink.com 1.10,2013-02-13 13:45:00,
2013-02-13 09:00:00,27.3,24.0,29.81,SE,134,0.0,1.0,88,0.00,,,0.00,weatherlink.com 1.10,2013-02-13 14:00:00,
2013-02-13 09:16:00,27.8,24.0,29.81,SSW,207,0.0,2.0,87,0.00,,,0.00,weatherlink.com 1.10,2013-02-13 14:16:00,
2013-02-13 09:31:00,28.4,25.0,29.81,ESE,116,2.0,2.0,86,0.00,,,0.00,weatherlink.com 1.10,2013-02-13 14:31:00,
2013-02-13 09:46:00,28.7,25.0,29.80,East,86,0.0,3.0,85,0.00,,,0.00,weatherlink.com 1.10,2013-02-13 14:46:00,
2013-02-13 10:01:00,29.3,26.0,29.80,WSW,241,0.0,3.0,86,0.00,,,0.00,weatherlink.com 1.10,2013-02-13 15:01:00,
2013-02-13 10:16:00,29.8,26.0,29.80,WSW,240,0.0,0.0,85,0.00,,,0.00,weatherlink.com 1.10,2013-02-13 15:16:00,
2013-02-13 10:31:00,30.6,26.0,29.80,SSE,155,0.0,1.0,83,0.00,,,0.00,weatherlink.com 1.10,2013-02-13 15:31:00,
2013-02-13 10:46:00,30.9,26.0,29.80,SSE,168,0.0,2.0,83,0.00,,,0.00,weatherlink.com 1.10,2013-02-13 15:46:00,
2013-02-13 11:01:00,31.0,26.0,29.80,NW,309,0.0,2.0,82,0.00,,,0.00,weatherlink.com 1.10,2013-02-13 16:01:00,
2013-02-13 11:16:00,31.6,26.0,29.80,SSW,193,0.0,1.0,81,0.00,,,0.00,weatherlink.com 1.10,2013-02-13 16:16:00,
2013-02-13 11:31:00,31.8,26.0,29.80,WSW,255,0.0,3.0,80,0.00,,,0.00,weatherlink.com 1.10,2013-02-13 16:31:00,
2013-02-13 11:46:00,32.2,26.0,29.80,West,271,0.0,3.0,79,0.00,,,0.00,weatherlink.com 1.10,2013-02-13 16:46:00,
2013-02-13 12:01:00,32.8,26.0,29.80,SE,131,1.0,3.0,77,0.00,,,0.00,weatherlink.com 1.10,2013-02-13 17:01:00,
2013-02-13 12:16:00,33.2,26.0,29.79,NW,316,0.0,3.0,75,0.00,,,0.00,weatherlink.com 1.10,2013-02-13 17:16:00,
2013-02-13 12:31:00,33.9,27.0,29.79,SSW,194,0.0,3.0,75,0.00,,,0.00,weatherlink.com 1.10,2013-02-13 17:31:00,
2013-02-13 12:46:00,34.5,27.0,29.78,WNW,295,1.0,3.0,75,0.00,,,0.00,weatherlink.com 1.10,2013-02-13 17:46:00,
2013-02-13 13:01:00,34.7,27.0,29.77,WNW,300,1.0,4.0,73,0.00,,,0.00,weatherlink.com 1.10,2013-02-13 18:01:00,
2013-02-13 13:16:00,34.7,27.0,29.76,WSW,245,3.0,4.0,74,0.00,,,0.00,weatherlink.com 1.10,2013-02-13 18:16:00,
2013-02-13 13:31:00,35.5,28.0,29.75,WNW,287,4.0,5.0,74,0.00,,,0.00,weatherlink.com 1.10,2013-02-13 18:31:00,
2013-02-13 13:46:00,35.7,28.0,29.74,WNW,290,2.0,4.0,73,0.00,,,0.00,weatherlink.com 1.10,2013-02-13 18:46:00,
2013-02-13 14:01:00,36.0,28.0,29.74,West,274,0.0,4.0,73,0.00,,,0.00,weatherlink.com 1.10,2013-02-13 19:01:00,
2013-02-13 14:16:00,36.9,28.0,29.73,East,96,0.0,5.0,70,0.00,,,0.00,weatherlink.com 1.10,2013-02-13 19:16:00,
2013-02-13 14:31:00,37.5,29.0,29.73,SSE,155,2.0,4.0,70,0.00,,,0.00,weatherlink.com 1.10,2013-02-13 19:31:00,
2013-02-13 14:47:00,37.4,29.0,29.72,WNW,284,1.0,4.0,71,0.00,,,0.00,weatherlink.com 1.10,2013-02-13 19:47:00,
2013-02-13 15:02:00,37.7,29.0,29.72,WNW,300,1.0,5.0,70,0.00,,,0.00,weatherlink.com 1.10,2013-02-13 20:02:00,
2013-02-13 15:17:00,37.7,29.0,29.72,SW,226,1.0,5.0,71,0.00,,,0.00,weatherlink.com 1.10,2013-02-13 20:17:00,
2013-02-13 15:32:00,38.3,29.0,29.72,WNW,291,1.0,3.0,69,0.00,,,0.00,weatherlink.com 1.10,2013-02-13 20:32:00,
2013-02-13 15:47:00,38.2,29.0,29.71,WNW,293,1.0,2.0,70,0.00,,,0.00,weatherlink.com 1.10,2013-02-13 20:47:00,
2013-02-13 16:02:00,38.7,29.0,29.71,NW,312,0.0,2.0,69,0.00,,,0.00,weatherlink.com 1.10,2013-02-13 21:02:00,
2013-02-13 16:17:00,39.2,29.0,29.72,WNW,297,0.0,0.0,68,0.00,,,0.00,weatherlink.com 1.10,2013-02-13 21:17:00,
2013-02-13 16:31:00,39.1,30.0,29.72,SSW,210,1.0,4.0,69,0.00,,,0.00,weatherlink.com 1.10,2013-02-13 21:31:00,
2013-02-13 16:46:00,38.8,29.0,29.72,WNW,286,0.0,3.0,69,0.00,,,0.00,weatherlink.com 1.10,2013-02-13 21:46:00,
2013-02-13 17:01:00,38.7,29.0,29.72,NW,308,1.0,2.0,69,0.00,,,0.00,weatherlink.com 1.10,2013-02-13 22:01:00,
2013-02-13 17:16:00,38.1,30.0,29.72,West,281,3.0,3.0,72,0.00,,,0.00,weatherlink.com 1.10,2013-02-13 22:16:00,
2013-02-13 17:31:00,37.1,30.0,29.72,WNW,294,0.0,3.0,75,0.00,,,0.00,weatherlink.com 1.10,2013-02-13 22:31:00,
2013-02-13 17:46:00,36.4,30.0,29.73,WNW,295,0.0,2.0,76,0.00,,,0.00,weatherlink.com 1.10,2013-02-13 22:46:00,
2013-02-13 18:01:00,35.8,29.0,29.73,WNW,295,0.0,0.0,76,0.00,,,0.00,weatherlink.com 1.10,2013-02-13 23:01:00,
2013-02-13 18:16:00,34.8,29.0,29.73,WNW,295,0.0,0.0,78,0.00,,,0.00,weatherlink.com 1.10,2013-02-13 23:16:00,
2013-02-13 18:31:00,34.0,28.0,29.73,WNW,294,0.0,0.0,79,0.00,,,0.00,weatherlink.com 1.10,2013-02-13 23:31:00,
2013-02-13 18:46:00,33.6,28.0,29.73,WNW,294,1.0,1.0,80,0.00,,,0.00,weatherlink.com 1.10,2013-02-13 23:46:00,
2013-02-13 19:01:00,33.7,28.0,29.73,SSE,159,0.0,1.0,81,0.00,,,0.00,weatherlink.com 1.10,2013-02-14 00:01:00,
2013-02-13 19:16:00,33.5,28.0,29.73,SSE,159,0.0,0.0,81,0.00,,,0.00,weatherlink.com 1.10,2013-02-14 00:16:00,